STARLINK-2227, 48575

Orbit data source: Space-Track

STARLINK-2227, 48575 is a payload satellite owned by SpaceX/Seattle (US) in LEO that was launched on Sat, 15 May 2021 UTC via an FALCON 9 launch vehicle from the Air Force Eastern Test Range (AFETR). Payload-class satellites include a variety of spacecraft equipped with specific instruments for various scientific and technological missions. These include communications satellites like Starlink; space stations such as the ISS; scientific satellites like the Hubble; Earth observation satellites from companies like Planet Labs, Umbra, and HawkEye 360; GPS; miniature CubeSats for education and research; and military/defense satellites.

Loading next visibility...
Identifier
48575, 2021-041Y
Orbit
LEO
Country
Flag of USUS
Related business
Manufacturer
SpaceX/Seattle
Mission
Operational Commercial Communications
Bus & Motor
STARLINK, Unknown motor
Mass
260 kg wet, ~248 kg dry
Launch date (UTC)
2021-05-15 (5 years ago)
Launch vehicle
FALCON 9
Launch site
Air Force Eastern Test Range (AFETR)
Object type
Payload
Rocket body
Debris
Shape & HBR
Box + 1 Pan, 10.1 m
Radar Cross Section
13.562 m², Large (>1 m²)

Expand to show TLE details & history
Last TLE update: 1 day ago

TLE from 1 day ago
0 STARLINK-2227
1 48575U 21041Y   25349.32601887 -.00000170  00000-0  74660-5 0  9992
2 48575  53.0562 110.6581 0001374  88.4196 271.6950 15.06390640253054
Epoch: 2025-12-15T07:49Z
TLE epoch observation values (Epoch: 2025-12-15T07:49:28.030Z)
Latitude
-0.00005°
Longitude
-90.93492°
Altitude
548.092 km
Speed
7.589 km/s
True Right ascension
07h 22m 37s
True Declination
0° 00' 00"
Sunlit
Object was in full shadow at epoch
Visualization orbit readout
Latitude
Unknown
Longitude
Unknown
Altitude
Unknown
Speed
Unknown
Apparent Right ascension
Unknown
Apparent Declination
Unknown
Sunlit
N/A
Visualization observer readout
Local Sidereal Time
09:25:36
Azimuth
Unknown
Elevation
Unknown
Doppler factor
Unknown
Orbital elements
Apogee altitude
548.462 km
Perigee altitude
546.559 km
Semi-major axis
6,925.648 km
Eccentricity
0.00014
Inclination
53.0562°
RAAN
110.6581°
Arg. of periapsis
88.4196°
True anomaly
271.67926°
Mean anomaly
271.695°
Eccentric anomaly
271.68713°
Mean motion
3.76576 °/min
Orbital period
95.6 mins
BSTAR
0.000007466
Loading maneuver chart data...
Computing Atmospheric mass density...
Loading historical data...
Loading historical data...
Loading historical data...
Loading historical data...
Loading historical data...
Loading historical data...
Loading historical data...

Documentation

Showing up to 5 results
|